Location: Vassar Physics Lab
(41.6843°N, 73.8954°W)
Time: 21:59:13
(UTC-04:00)

CZ-4B DEB - Visible Passes

Search period start: 27 May 2015 00:00
Search period end: 06 June 2015 00:00
Orbit: 842 x 864 km, 98.9° (Epoch: 26 May)

Date Brightness Start Highest point End Pass type
(mag) Time Alt. Az. Time Alt. Az. Time Alt. Az.
27 May 4.7 04:19:20 10° NNE 04:24:50 64° ESE 04:30:21 10° S visible
28 May 5.0 04:08:14 10° NNE 04:13:37 51° E 04:19:01 10° S visible
29 May 5.4 03:57:10 10° NNE 04:02:21 41° E 04:07:35 10° SSE visible
30 May 5.8 03:46:10 10° NNE 03:51:05 32° E 03:56:03 10° SSE visible
31 May 6.1 03:35:15 10° NE 03:39:46 26° E 03:44:25 10° SSE visible
01 Jun 6.4 03:24:26 10° NE 03:28:27 21° E 03:32:38 10° SE visible
02 Jun 6.6 03:13:46 10° NE 03:17:05 17° E 03:20:39 10° SE visible
03 Jun 6.7 03:03:26 10° ENE 03:05:42 13° E 03:08:19 10° ESE visible
03 Jun 4.3 04:41:39 10° NNE 04:47:14 83° WNW 04:52:48 10° SSW visible
04 Jun 4.4 04:30:28 10° NNE 04:36:02 80° ESE 04:41:37 10° S visible
05 Jun 4.7 04:19:19 10° NNE 04:24:50 64° ESE 04:30:21 10° S visible
